FENGYUN 1C DEB

基本信息
目录编号:
30553
目录名称:
FENGYUN 1C DEB
国际标识:
1999-025AKT
轨道中心:
EARTH
物体状态:
在轨
发射日期:
1999-05-10 UTC
轨道信息
数据来源: 国际轨道数据
星历时间: 2026-09-11T16:28:35+0800
半长轴: 6998.002km
偏心率: 0.0016031
轨道倾角: 99.134°
近地点辐角: 15.180°
升交点赤经: 30.387°
平近点角: 344.989°
近地点: 608.646km
远地点: 631.084km
周期: 97.100分钟
每日圈数: 14.830019
详细信息
发射场:
TSC
轨道高度:
LEO
数据来源:
AOE Integration Group
参考系:
TEME
时间系统:
UTC
历元类型:
SGP4
2D轨道图
3D轨道图
轨道高度分析图
轨道倾角分析图
轨道综合分析图
查看轨道综合分析图